Wetterdaten: Dienstag, 23.06.2015
Datum Zeit Auen-Temp. Temp gefhlt Luftfeuchte Luftdruck Regen Wind Richtung Richtung Taupunkt Windben
23.06.2015 00:00 11,7 C 11,5 C 85 % 1009,0 hPa 0,0 mm 1,6 km/h (1 Bft) NW 315 9,3 C 5,2 km/h (1 Bft)
23.06.2015 00:05 11,7 C 11,5 C 88 % 1009,0 hPa 0,0 mm 2,6 km/h (1 Bft) NW 315 9,8 C 5,2 km/h (1 Bft)
23.06.2015 00:10 11,9 C 11,8 C 85 % 1009,0 hPa 0,0 mm 7,5 km/h (2 Bft) NW 315 9,5 C 45,6 km/h (6 Bft)
23.06.2015 00:15 12,4 C 11,9 C 87 % 1010,8 hPa 0,7 mm 13,7 km/h (3 Bft) W-NW 292 10,3 C 52,3 km/h (7 Bft)
23.06.2015 00:20 12,3 C 11,8 C 87 % 1010,8 hPa 0,0 mm 16,8 km/h (3 Bft) S-SW 202 10,2 C 12,4 km/h (3 Bft)
23.06.2015 00:25 12,2 C 11,8 C 88 % 1010,8 hPa 0,0 mm 11,1 km/h (2 Bft) S-SW 202 10,3 C 0,0 km/h (0 Bft)
23.06.2015 00:30 12,1 C 11,9 C 88 % 1010,8 hPa 0,0 mm 8,0 km/h (2 Bft) SW 225 10,2 C 11,4 km/h (2 Bft)
23.06.2015 00:35 12,1 C 11,9 C 88 % 1011,0 hPa 0,0 mm 7,3 km/h (2 Bft) W-SW 247 10,2 C 14,0 km/h (3 Bft)
23.06.2015 00:40 12,1 C 11,9 C 88 % 1011,0 hPa 0,0 mm 5,7 km/h (1 Bft) SW 225 10,2 C 3,6 km/h (1 Bft)
23.06.2015 00:45 12,1 C 12,0 C 88 % 1011,0 hPa 0,7 mm 4,4 km/h (1 Bft) NW 315 10,2 C 0,0 km/h (0 Bft)
23.06.2015 00:50 12,1 C 12,0 C 88 % 1011,0 hPa 0,0 mm 2,6 km/h (1 Bft) S 180 10,2 C 3,1 km/h (1 Bft)
23.06.2015 00:55 12,1 C 12,0 C 88 % 1011,1 hPa 0,7 mm 2,3 km/h (1 Bft) S 180 10,2 C 0,0 km/h (0 Bft)
23.06.2015 01:00 12,0 C 11,9 C 88 % 1011,1 hPa 1,4 mm 2,3 km/h (1 Bft) S 180 10,1 C 0,0 km/h (0 Bft)
23.06.2015 01:05 12,0 C 11,9 C 89 % 1011,1 hPa 0,0 mm 2,6 km/h (1 Bft) NW 315 10,2 C 13,5 km/h (3 Bft)
23.06.2015 01:10 11,8 C 11,7 C 89 % 1011,1 hPa 2,1 mm 8,8 km/h (2 Bft) W 270 10,0 C 30,6 km/h (5 Bft)
23.06.2015 01:15 11,4 C 11,3 C 88 % 1011,8 hPa 0,7 mm 14,0 km/h (3 Bft) W-SW 247 9,5 C 29,3 km/h (5 Bft)
23.06.2015 01:20 11,2 C 10,9 C 88 % 1011,8 hPa 0,7 mm 15,8 km/h (3 Bft) SW 225 9,3 C 17,9 km/h (3 Bft)
23.06.2015 01:25 10,9 C 10,5 C 88 % 1011,8 hPa 1,4 mm 13,7 km/h (3 Bft) NW 315 9,0 C 8,8 km/h (2 Bft)
23.06.2015 01:30 10,7 C 10,3 C 89 % 1011,8 hPa 0,7 mm 11,9 km/h (2 Bft) NW 315 9,0 C 12,2 km/h (2 Bft)
23.06.2015 01:35 10,7 C 10,4 C 89 % 1012,4 hPa 0,7 mm 9,8 km/h (2 Bft) W-SW 247 9,0 C 10,4 km/h (2 Bft)
23.06.2015 01:40 10,6 C 10,5 C 89 % 1012,4 hPa 0,0 mm 4,7 km/h (1 Bft) SW 225 8,9 C 14,2 km/h (3 Bft)
23.06.2015 01:45 10,6 C 10,5 C 89 % 1012,4 hPa 0,7 mm 4,4 km/h (1 Bft) W-SW 247 8,9 C 6,5 km/h (2 Bft)
23.06.2015 01:50 10,6 C 10,5 C 89 % 1012,4 hPa 0,7 mm 7,0 km/h (2 Bft) W-NW 292 8,9 C 7,3 km/h (2 Bft)
23.06.2015 01:55 10,6 C 10,4 C 89 % 1012,7 hPa 0,0 mm 8,0 km/h (2 Bft) N-NW 337 8,9 C 8,5 km/h (2 Bft)
23.06.2015 02:00 10,6 C 10,5 C 89 % 1012,7 hPa 0,7 mm 5,7 km/h (1 Bft) W 270 8,9 C 7,5 km/h (2 Bft)
23.06.2015 02:05 10,6 C 10,5 C 90 % 1012,7 hPa 1,4 mm 4,1 km/h (1 Bft) W 270 9,0 C 6,7 km/h (2 Bft)
23.06.2015 02:10 10,6 C 10,5 C 90 % 1012,7 hPa 1,4 mm 5,7 km/h (1 Bft) N-NW 337 9,0 C 14,8 km/h (3 Bft)
23.06.2015 02:15 10,5 C 10,2 C 90 % 1013,4 hPa 0,0 mm 11,1 km/h (2 Bft) NW 315 8,9 C 19,7 km/h (3 Bft)
23.06.2015 02:20 10,3 C 10,0 C 89 % 1013,4 hPa 0,7 mm 15,0 km/h (3 Bft) W 270 8,6 C 7,3 km/h (2 Bft)
23.06.2015 02:25 10,2 C 9,7 C 89 % 1013,4 hPa 0,0 mm 11,9 km/h (2 Bft) S 180 8,5 C 7,0 km/h (2 Bft)
23.06.2015 02:30 10,1 C 9,8 C 89 % 1013,4 hPa 0,7 mm 8,8 km/h (2 Bft) W 270 8,4 C 13,5 km/h (3 Bft)
23.06.2015 02:35 9,9 C 9,6 C 89 % 1013,4 hPa 0,0 mm 8,5 km/h (2 Bft) NW 315 8,2 C 14,8 km/h (3 Bft)
23.06.2015 02:40 9,7 C 9,3 C 89 % 1013,4 hPa 0,0 mm 9,6 km/h (2 Bft) W-NW 292 8,0 C 15,8 km/h (3 Bft)
23.06.2015 02:45 9,7 C 9,2 C 89 % 1013,4 hPa 0,0 mm 10,1 km/h (2 Bft) NW 315 8,0 C 25,4 km/h (4 Bft)
23.06.2015 02:50 9,4 C 8,9 C 88 % 1013,4 hPa 0,7 mm 11,1 km/h (2 Bft) W-SW 247 7,5 C 6,5 km/h (2 Bft)
23.06.2015 02:55 9,3 C 8,8 C 88 % 1012,9 hPa 0,0 mm 10,1 km/h (2 Bft) S 180 7,4 C 28,2 km/h (4 Bft)
23.06.2015 03:00 9,2 C 9,0 C 88 % 1012,9 hPa 0,0 mm 5,4 km/h (1 Bft) W-NW 292 7,3 C 5,2 km/h (1 Bft)
23.06.2015 03:05 9,2 C 9,0 C 89 % 1012,9 hPa 0,0 mm 6,0 km/h (2 Bft) W-SW 247 7,5 C 13,7 km/h (3 Bft)
23.06.2015 03:10 9,2 C 9,0 C 89 % 1012,9 hPa 0,7 mm 7,0 km/h (2 Bft) W-SW 247 7,5 C 19,4 km/h (3 Bft)
23.06.2015 03:15 9,2 C 8,9 C 89 % 1012,9 hPa 0,0 mm 7,8 km/h (2 Bft) NW 315 7,5 C 11,7 km/h (2 Bft)
23.06.2015 03:20 9,2 C 8,9 C 89 % 1012,9 hPa 0,7 mm 8,8 km/h (2 Bft) NW 315 7,5 C 8,5 km/h (2 Bft)
23.06.2015 03:25 9,2 C 8,9 C 89 % 1012,9 hPa 0,0 mm 7,8 km/h (2 Bft) W-NW 292 7,5 C 11,1 km/h (2 Bft)
23.06.2015 03:30 9,1 C 8,9 C 89 % 1012,9 hPa 0,0 mm 5,2 km/h (1 Bft) W 270 7,4 C 3,1 km/h (1 Bft)
23.06.2015 03:35 9,1 C 8,9 C 89 % 1012,8 hPa 0,7 mm 4,1 km/h (1 Bft) NW 315 7,4 C 9,3 km/h (2 Bft)
23.06.2015 03:40 9,1 C 8,9 C 89 % 1012,8 hPa 0,0 mm 3,6 km/h (1 Bft) W 270 7,4 C 7,0 km/h (2 Bft)
23.06.2015 03:45 9,1 C 8,9 C 89 % 1012,8 hPa 0,0 mm 4,1 km/h (1 Bft) SW 225 7,4 C 3,6 km/h (1 Bft)
23.06.2015 03:50 9,1 C 8,9 C 89 % 1012,8 hPa 0,7 mm 4,7 km/h (1 Bft) W 270 7,4 C 10,6 km/h (2 Bft)
23.06.2015 03:55 9,1 C 8,9 C 89 % 1012,6 hPa 0,0 mm 4,4 km/h (1 Bft) S 180 7,4 C 5,2 km/h (1 Bft)
23.06.2015 04:00 9,2 C 9,0 C 89 % 1012,6 hPa 0,0 mm 6,0 km/h (2 Bft) N-NW 337 7,5 C 5,4 km/h (1 Bft)
23.06.2015 04:05 9,1 C 8,9 C 89 % 1012,6 hPa 0,7 mm 5,4 km/h (1 Bft) W-SW 247 7,4 C 2,8 km/h (1 Bft)
23.06.2015 04:10 9,1 C 8,9 C 89 % 1012,6 hPa 0,0 mm 4,9 km/h (1 Bft) W-SW 247 7,4 C 8,3 km/h (2 Bft)
23.06.2015 04:15 9,1 C 8,9 C 89 % 1012,4 hPa 0,0 mm 4,4 km/h (1 Bft) W 270 7,4 C 3,6 km/h (1 Bft)
23.06.2015 04:20 9,2 C 9,0 C 89 % 1012,4 hPa 0,7 mm 3,9 km/h (1 Bft) N-NO 22 7,5 C 5,7 km/h (1 Bft)
23.06.2015 04:25 9,2 C 9,0 C 89 % 1012,4 hPa 0,0 mm 5,4 km/h (1 Bft) W 270 7,5 C 12,9 km/h (3 Bft)
23.06.2015 04:30 9,3 C 8,9 C 89 % 1012,4 hPa 0,0 mm 8,0 km/h (2 Bft) S 180 7,6 C 7,0 km/h (2 Bft)
23.06.2015 04:35 9,2 C 8,8 C 89 % 1012,2 hPa 0,0 mm 8,3 km/h (2 Bft) W 270 7,5 C 7,5 km/h (2 Bft)
23.06.2015 04:40 9,2 C 8,9 C 89 % 1012,2 hPa 0,7 mm 6,7 km/h (2 Bft) S-SW 202 7,5 C 10,1 km/h (2 Bft)
23.06.2015 04:45 9,2 C 8,9 C 89 % 1012,2 hPa 0,0 mm 6,7 km/h (2 Bft) S 180 7,5 C 10,9 km/h (2 Bft)
23.06.2015 04:50 9,2 C 8,9 C 89 % 1012,2 hPa 0,0 mm 7,3 km/h (2 Bft) SW 225 7,5 C 6,2 km/h (2 Bft)
23.06.2015 04:55 9,2 C 8,9 C 89 % 1012,6 hPa 0,0 mm 7,0 km/h (2 Bft) W-NW 292 7,5 C 5,2 km/h (1 Bft)
23.06.2015 05:00 9,2 C 8,8 C 88 % 1012,6 hPa 0,0 mm 8,0 km/h (2 Bft) S 180 7,3 C 9,8 km/h (2 Bft)
23.06.2015 05:05 9,1 C 8,8 C 88 % 1012,6 hPa 0,7 mm 7,5 km/h (2 Bft) NW 315 7,2 C 4,1 km/h (1 Bft)
23.06.2015 05:10 9,1 C 8,9 C 88 % 1012,6 hPa 0,0 mm 6,2 km/h (2 Bft) O-NO 67 7,2 C 10,4 km/h (2 Bft)
23.06.2015 05:15 9,0 C 8,8 C 88 % 1012,4 hPa 0,0 mm 6,5 km/h (2 Bft) W-NW 292 7,1 C 9,6 km/h (2 Bft)
23.06.2015 05:20 9,0 C 8,7 C 88 % 1012,4 hPa 0,7 mm 7,8 km/h (2 Bft) SW 225 7,1 C 15,0 km/h (3 Bft)
23.06.2015 05:25 9,0 C 8,5 C 88 % 1012,4 hPa 0,0 mm 8,8 km/h (2 Bft) W 270 7,1 C 9,3 km/h (2 Bft)
23.06.2015 05:30 9,0 C 8,6 C 88 % 1012,4 hPa 0,0 mm 7,5 km/h (2 Bft) W-SW 247 7,1 C 7,5 km/h (2 Bft)
23.06.2015 05:35 9,0 C 8,7 C 88 % 1012,4 hPa 0,0 mm 6,7 km/h (2 Bft) W-SW 247 7,1 C 5,4 km/h (1 Bft)
23.06.2015 05:40 9,0 C 8,6 C 87 % 1012,4 hPa 0,0 mm 7,5 km/h (2 Bft) W-NW 292 7,0 C 14,5 km/h (3 Bft)
23.06.2015 05:45 8,9 C 8,6 C 88 % 1012,4 hPa 0,0 mm 6,7 km/h (2 Bft) S 180 7,0 C 7,0 km/h (2 Bft)
23.06.2015 05:50 9,0 C 8,7 C 87 % 1012,4 hPa 0,0 mm 6,5 km/h (2 Bft) W-SW 247 7,0 C 10,1 km/h (2 Bft)
23.06.2015 05:55 9,0 C 8,7 C 87 % 1012,3 hPa 0,0 mm 5,7 km/h (1 Bft) O-SO 112 7,0 C 3,6 km/h (1 Bft)
23.06.2015 06:00 9,1 C 8,8 C 87 % 1012,3 hPa 0,0 mm 5,7 km/h (1 Bft) W 270 7,1 C 11,1 km/h (2 Bft)
23.06.2015 06:05 9,1 C 8,8 C 87 % 1012,3 hPa 0,0 mm 5,2 km/h (1 Bft) SW 225 7,1 C 8,8 km/h (2 Bft)
23.06.2015 06:10 9,2 C 8,9 C 86 % 1012,3 hPa 0,0 mm 6,0 km/h (2 Bft) S-SW 202 7,0 C 11,4 km/h (2 Bft)
23.06.2015 06:15 9,2 C 9,0 C 86 % 1012,6 hPa 0,0 mm 4,9 km/h (1 Bft) N-NO 22 7,0 C 3,6 km/h (1 Bft)
23.06.2015 06:20 9,2 C 9,0 C 86 % 1012,6 hPa 0,0 mm 4,1 km/h (1 Bft) W 270 7,0 C 13,5 km/h (3 Bft)
23.06.2015 06:25 9,3 C 9,0 C 86 % 1012,6 hPa 0,0 mm 4,7 km/h (1 Bft) NW 315 7,1 C 11,4 km/h (2 Bft)
23.06.2015 06:30 9,3 C 9,1 C 86 % 1012,6 hPa 0,0 mm 4,4 km/h (1 Bft) NW 315 7,1 C 4,4 km/h (1 Bft)
23.06.2015 06:35 9,3 C 9,1 C 86 % 1012,5 hPa 0,0 mm 3,4 km/h (1 Bft) W 270 7,1 C 4,1 km/h (1 Bft)
23.06.2015 06:40 9,3 C 9,1 C 86 % 1012,5 hPa 0,0 mm 3,1 km/h (1 Bft) W-NW 292 7,1 C 7,8 km/h (2 Bft)
23.06.2015 06:45 9,5 C 9,3 C 86 % 1012,5 hPa 0,0 mm 3,9 km/h (1 Bft) N-NO 22 7,3 C 0,0 km/h (0 Bft)
23.06.2015 06:50 9,6 C 9,4 C 86 % 1012,5 hPa 0,0 mm 3,4 km/h (1 Bft) W-SW 247 7,4 C 8,5 km/h (2 Bft)
23.06.2015 06:55 9,7 C 9,5 C 86 % 1012,9 hPa 0,0 mm 3,4 km/h (1 Bft) NW 315 7,5 C 6,5 km/h (2 Bft)
23.06.2015 07:00 9,8 C 9,6 C 85 % 1012,9 hPa 0,0 mm 4,1 km/h (1 Bft) NW 315 7,4 C 3,9 km/h (1 Bft)
23.06.2015 07:05 9,9 C 9,7 C 85 % 1012,9 hPa 0,0 mm 3,6 km/h (1 Bft) W-SW 247 7,5 C 11,1 km/h (2 Bft)
23.06.2015 07:10 9,9 C 9,7 C 85 % 1012,9 hPa 0,0 mm 2,6 km/h (1 Bft) SW 225 7,5 C 0,0 km/h (0 Bft)
23.06.2015 07:15 10,0 C 9,8 C 85 % 1013,1 hPa 0,0 mm 3,1 km/h (1 Bft) W 270 7,6 C 4,1 km/h (1 Bft)
23.06.2015 07:20 10,0 C 9,9 C 83 % 1013,1 hPa 0,0 mm 2,8 km/h (1 Bft) NW 315 7,2 C 0,0 km/h (0 Bft)
23.06.2015 07:25 10,0 C 9,8 C 85 % 1013,1 hPa 0,0 mm 2,8 km/h (1 Bft) N-NW 337 7,6 C 4,4 km/h (1 Bft)
23.06.2015 07:30 9,9 C 9,7 C 85 % 1013,1 hPa 0,0 mm 3,4 km/h (1 Bft) N-NW 337 7,5 C 3,4 km/h (1 Bft)
23.06.2015 07:35 9,9 C 9,7 C 85 % 1013,1 hPa 0,0 mm 3,9 km/h (1 Bft) W-SW 247 7,5 C 3,9 km/h (1 Bft)
23.06.2015 07:40 9,9 C 9,7 C 85 % 1013,1 hPa 0,0 mm 3,4 km/h (1 Bft) NW 315 7,5 C 7,8 km/h (2 Bft)
23.06.2015 07:45 9,9 C 9,7 C 85 % 1013,1 hPa 0,0 mm 3,1 km/h (1 Bft) W-SW 247 7,5 C 4,1 km/h (1 Bft)
23.06.2015 07:50 9,9 C 9,7 C 85 % 1013,1 hPa 0,0 mm 3,1 km/h (1 Bft) O-NO 67 7,5 C 0,0 km/h (0 Bft)
23.06.2015 07:55 9,8 C 9,6 C 86 % 1013,6 hPa 0,0 mm 2,8 km/h (1 Bft) N-NO 22 7,6 C 2,8 km/h (1 Bft)
23.06.2015 08:00 9,9 C 9,9 C 84 % 1013,6 hPa 0,0 mm 4,4 km/h (1 Bft) SW 225 7,3 C 10,4 km/h (2 Bft)
23.06.2015 08:05 10,0 C 10,0 C 84 % 1013,6 hPa 0,0 mm 6,0 km/h (2 Bft) NW 315 7,4 C 7,0 km/h (2 Bft)
23.06.2015 08:10 10,0 C 9,9 C 84 % 1013,6 hPa 0,0 mm 7,5 km/h (2 Bft) W-SW 247 7,4 C 15,0 km/h (3 Bft)
23.06.2015 08:15 10,0 C 9,7 C 86 % 1013,6 hPa 0,0 mm 9,1 km/h (2 Bft) W 270 7,8 C 16,6 km/h (3 Bft)
23.06.2015 08:20 10,1 C 10,1 C 84 % 1013,6 hPa 0,0 mm 8,5 km/h (2 Bft) NW 315 7,5 C 5,2 km/h (1 Bft)
23.06.2015 08:25 10,2 C 10,3 C 84 % 1013,6 hPa 0,0 mm 7,0 km/h (2 Bft) NW 315 7,6 C 6,7 km/h (2 Bft)
23.06.2015 08:30 10,3 C 10,5 C 84 % 1013,6 hPa 0,0 mm 8,0 km/h (2 Bft) W 270 7,7 C 18,4 km/h (3 Bft)
23.06.2015 08:35 10,5 C 10,8 C 84 % 1013,9 hPa 0,0 mm 9,3 km/h (2 Bft) W-NW 292 7,9 C 19,7 km/h (3 Bft)
23.06.2015 08:40 10,5 C 10,8 C 84 % 1013,9 hPa 0,0 mm 8,5 km/h (2 Bft) S 180 7,9 C 12,4 km/h (3 Bft)
23.06.2015 08:45 10,7 C 11,5 C 84 % 1013,9 hPa 0,0 mm 7,5 km/h (2 Bft) NW 315 8,1 C 7,8 km/h (2 Bft)
23.06.2015 08:50 10,9 C 11,6 C 84 % 1013,9 hPa 0,0 mm 5,4 km/h (1 Bft) O 90 8,3 C 6,5 km/h (2 Bft)
23.06.2015 08:55 11,1 C 12,0 C 84 % 1013,9 hPa 0,0 mm 4,1 km/h (1 Bft) SW 225 8,5 C 0,0 km/h (0 Bft)
23.06.2015 09:00 11,0 C 12,0 C 84 % 1013,9 hPa 0,0 mm 3,6 km/h (1 Bft) W-SW 247 8,4 C 4,4 km/h (1 Bft)
23.06.2015 09:05 11,1 C 11,7 C 84 % 1013,9 hPa 0,0 mm 3,6 km/h (1 Bft) W-SW 247 8,5 C 13,2 km/h (3 Bft)
23.06.2015 09:10 11,0 C 11,7 C 84 % 1013,9 hPa 0,0 mm 4,4 km/h (1 Bft) SW 225 8,4 C 4,1 km/h (1 Bft)
23.06.2015 09:15 11,1 C 11,7 C 83 % 1014,1 hPa 0,0 mm 5,4 km/h (1 Bft) W 270 8,3 C 8,5 km/h (2 Bft)
23.06.2015 09:20 11,2 C 12,0 C 83 % 1014,1 hPa 0,0 mm 4,9 km/h (1 Bft) SO 135 8,4 C 9,3 km/h (2 Bft)
23.06.2015 09:25 11,3 C 12,2 C 83 % 1014,1 hPa 0,0 mm 5,4 km/h (1 Bft) NW 315 8,5 C 7,5 km/h (2 Bft)
23.06.2015 09:30 11,8 C 14,1 C 83 % 1014,1 hPa 0,0 mm 6,0 km/h (2 Bft) W-SW 247 9,0 C 3,1 km/h (1 Bft)
23.06.2015 09:35 12,6 C 16,1 C 83 % 1013,7 hPa 0,0 mm 5,7 km/h (1 Bft) S 180 9,8 C 7,3 km/h (2 Bft)
23.06.2015 09:40 12,9 C 17,2 C 82 % 1013,7 hPa 0,0 mm 4,9 km/h (1 Bft) W-NW 292 9,9 C 6,5 km/h (2 Bft)
23.06.2015 09:45 12,9 C 17,1 C 81 % 1013,7 hPa 0,0 mm 6,5 km/h (2 Bft) NW 315 9,7 C 9,3 km/h (2 Bft)
23.06.2015 09:50 12,5 C 15,5 C 81 % 1013,7 hPa 0,0 mm 8,8 km/h (2 Bft) W-SW 247 9,3 C 21,5 km/h (4 Bft)
23.06.2015 09:55 12,5 C 15,1 C 81 % 1014,1 hPa 0,0 mm 8,0 km/h (2 Bft) N-NW 337 9,3 C 6,5 km/h (2 Bft)
23.06.2015 10:00 12,4 C 14,6 C 80 % 1014,1 hPa 0,0 mm 8,3 km/h (2 Bft) N-NW 337 9,0 C 8,3 km/h (2 Bft)
23.06.2015 10:05 12,2 C 14,0 C 80 % 1014,1 hPa 0,0 mm 9,8 km/h (2 Bft) O-SO 112 8,9 C 5,7 km/h (1 Bft)
23.06.2015 10:10 11,8 C 12,0 C 80 % 1014,1 hPa 0,7 mm 9,8 km/h (2 Bft) N-NW 337 8,5 C 15,3 km/h (3 Bft)
23.06.2015 10:15 11,3 C 11,2 C 80 % 1014,5 hPa 0,0 mm 9,3 km/h (2 Bft) NW 315 8,0 C 27,2 km/h (4 Bft)
23.06.2015 10:20 10,7 C 10,4 C 81 % 1014,5 hPa 0,0 mm 9,8 km/h (2 Bft) W-NW 292 7,6 C 12,9 km/h (3 Bft)
23.06.2015 10:25 10,7 C 10,5 C 82 % 1014,5 hPa 1,4 mm 8,0 km/h (2 Bft) SW 225 7,8 C 9,3 km/h (2 Bft)
23.06.2015 10:30 10,6 C 10,7 C 81 % 1014,5 hPa 0,0 mm 6,5 km/h (2 Bft) SO 135 7,5 C 2,8 km/h (1 Bft)
23.06.2015 10:35 10,7 C 11,1 C 82 % 1014,6 hPa 0,0 mm 6,5 km/h (2 Bft) S 180 7,8 C 7,3 km/h (2 Bft)
23.06.2015 10:40 10,9 C 11,4 C 82 % 1014,6 hPa 0,0 mm 4,9 km/h (1 Bft) NO 45 7,9 C 7,5 km/h (2 Bft)
23.06.2015 10:45 11,3 C 12,1 C 82 % 1014,6 hPa 0,0 mm 4,4 km/h (1 Bft) W-NW 292 8,3 C 5,7 km/h (1 Bft)
23.06.2015 10:50 11,5 C 12,1 C 83 % 1014,6 hPa 0,0 mm 5,7 km/h (1 Bft) W-SW 247 8,7 C 6,0 km/h (2 Bft)
23.06.2015 10:55 12,1 C 13,8 C 83 % 1014,8 hPa 0,0 mm 6,2 km/h (2 Bft) W-SW 247 9,3 C 5,4 km/h (1 Bft)
23.06.2015 11:00 12,7 C 15,6 C 82 % 1014,8 hPa 0,0 mm 7,3 km/h (2 Bft) W 270 9,7 C 7,0 km/h (2 Bft)
23.06.2015 11:05 12,8 C 15,8 C 82 % 1014,8 hPa 0,0 mm 7,0 km/h (2 Bft) S 180 9,8 C 9,6 km/h (2 Bft)
23.06.2015 11:10 12,6 C 14,6 C 81 % 1014,8 hPa 0,0 mm 8,0 km/h (2 Bft) SO 135 9,4 C 9,1 km/h (2 Bft)
23.06.2015 11:15 12,2 C 12,9 C 81 % 1015,2 hPa 0,0 mm 10,4 km/h (2 Bft) N-NW 337 9,0 C 18,6 km/h (3 Bft)
23.06.2015 11:20 12,4 C 13,0 C 81 % 1015,2 hPa 0,0 mm 10,9 km/h (2 Bft) S-SO 157 9,2 C 8,8 km/h (2 Bft)
23.06.2015 11:25 12,7 C 14,5 C 81 % 1015,2 hPa 0,0 mm 8,3 km/h (2 Bft) S-SW 202 9,5 C 8,3 km/h (2 Bft)
23.06.2015 11:30 12,7 C 15,0 C 81 % 1015,2 hPa 0,0 mm 6,5 km/h (2 Bft) W-SW 247 9,5 C 7,5 km/h (2 Bft)
23.06.2015 11:35 13,2 C 16,0 C 80 % 1015,1 hPa 0,0 mm 7,0 km/h (2 Bft) W 270 9,8 C 10,1 km/h (2 Bft)
23.06.2015 11:40 14,1 C 17,8 C 79 % 1015,1 hPa 0,0 mm 9,1 km/h (2 Bft) W 270 10,5 C 18,1 km/h (3 Bft)
23.06.2015 11:45 14,2 C 18,2 C 78 % 1015,1 hPa 0,0 mm 11,1 km/h (2 Bft) S-SW 202 10,4 C 17,3 km/h (3 Bft)
23.06.2015 11:50 14,7 C 18,8 C 78 % 1015,1 hPa 0,0 mm 12,2 km/h (2 Bft) SO 135 10,9 C 7,0 km/h (2 Bft)
23.06.2015 11:55 14,6 C 18,8 C 76 % 1015,5 hPa 0,7 mm 10,9 km/h (2 Bft) NW 315 10,4 C 13,7 km/h (3 Bft)
23.06.2015 12:00 13,6 C 16,4 C 75 % 1015,5 hPa 0,0 mm 11,1 km/h (2 Bft) O-NO 67 9,3 C 15,8 km/h (3 Bft)
23.06.2015 12:05 13,4 C 16,2 C 75 % 1015,5 hPa 0,0 mm 11,9 km/h (2 Bft) W-NW 292 9,1 C 24,1 km/h (4 Bft)
23.06.2015 12:10 14,1 C 16,6 C 76 % 1015,5 hPa 0,0 mm 9,1 km/h (2 Bft) NW 315 9,9 C 9,6 km/h (2 Bft)
23.06.2015 12:15 14,9 C 18,0 C 77 % 1015,8 hPa 0,0 mm 8,5 km/h (2 Bft) NW 315 10,9 C 19,2 km/h (3 Bft)
23.06.2015 12:20 14,1 C 17,2 C 74 % 1015,8 hPa 0,0 mm 13,7 km/h (3 Bft) NW 315 9,5 C 25,9 km/h (4 Bft)
23.06.2015 12:25 13,8 C 15,8 C 75 % 1015,8 hPa 0,0 mm 17,3 km/h (3 Bft) O-NO 67 9,4 C 19,9 km/h (4 Bft)
23.06.2015 12:30 13,5 C 14,4 C 76 % 1015,8 hPa 0,0 mm 14,0 km/h (3 Bft) W 270 9,4 C 21,5 km/h (4 Bft)
23.06.2015 12:35 13,5 C 14,1 C 76 % 1016,0 hPa 0,0 mm 11,1 km/h (2 Bft) S 180 9,4 C 17,9 km/h (3 Bft)
23.06.2015 12:40 13,2 C 13,6 C 77 % 1016,0 hPa 0,0 mm 8,0 km/h (2 Bft) S 180 9,3 C 10,9 km/h (2 Bft)
23.06.2015 12:45 13,0 C 13,4 C 76 % 1016,0 hPa 0,0 mm 6,7 km/h (2 Bft) NW 315 8,9 C 14,8 km/h (3 Bft)
23.06.2015 12:50 13,1 C 14,0 C 77 % 1016,0 hPa 0,0 mm 7,8 km/h (2 Bft) NW 315 9,2 C 2,6 km/h (1 Bft)
23.06.2015 12:55 13,7 C 15,1 C 77 % 1016,0 hPa 0,0 mm 8,3 km/h (2 Bft) W-SW 247 9,7 C 5,4 km/h (1 Bft)
23.06.2015 13:00 13,9 C 15,5 C 77 % 1016,0 hPa 0,0 mm 6,7 km/h (2 Bft) S 180 9,9 C 7,0 km/h (2 Bft)
23.06.2015 13:05 14,2 C 16,1 C 76 % 1016,0 hPa 0,0 mm 7,5 km/h (2 Bft) W-NW 292 10,0 C 18,4 km/h (3 Bft)
23.06.2015 13:10 14,2 C 16,6 C 76 % 1016,0 hPa 0,0 mm 8,5 km/h (2 Bft) N 360 10,0 C 12,7 km/h (3 Bft)
23.06.2015 13:15 14,4 C 16,8 C 75 % 1015,8 hPa 0,0 mm 8,0 km/h (2 Bft) NO 45 10,0 C 6,7 km/h (2 Bft)
23.06.2015 13:20 14,7 C 18,0 C 74 % 1015,8 hPa 0,0 mm 6,2 km/h (2 Bft) NW 315 10,1 C 6,0 km/h (2 Bft)
23.06.2015 13:25 14,4 C 17,2 C 73 % 1015,8 hPa 0,0 mm 8,0 km/h (2 Bft) N-NW 337 9,6 C 20,2 km/h (4 Bft)
23.06.2015 13:30 14,7 C 16,6 C 73 % 1015,8 hPa 0,0 mm 11,7 km/h (2 Bft) N-NW 337 9,9 C 6,7 km/h (2 Bft)
23.06.2015 13:35 14,7 C 17,1 C 73 % 1015,8 hPa 0,0 mm 12,4 km/h (3 Bft) NW 315 9,9 C 16,8 km/h (3 Bft)
23.06.2015 13:40 14,9 C 17,3 C 73 % 1015,8 hPa 0,0 mm 10,6 km/h (2 Bft) W-NW 292 10,1 C 4,9 km/h (1 Bft)
23.06.2015 13:45 14,9 C 17,8 C 72 % 1015,8 hPa 0,0 mm 10,9 km/h (2 Bft) N-NW 337 9,9 C 18,4 km/h (3 Bft)
23.06.2015 13:50 14,2 C 16,7 C 70 % 1015,8 hPa 0,0 mm 10,6 km/h (2 Bft) W-SW 247 8,8 C 12,9 km/h (3 Bft)
23.06.2015 13:55 14,6 C 17,2 C 70 % 1015,9 hPa 0,0 mm 10,9 km/h (2 Bft) W-SW 247 9,2 C 18,6 km/h (3 Bft)
23.06.2015 14:00 14,9 C 17,5 C 69 % 1015,9 hPa 0,0 mm 12,2 km/h (2 Bft) W-NW 292 9,3 C 15,0 km/h (3 Bft)
23.06.2015 14:05 15,3 C 17,9 C 69 % 1015,9 hPa 0,0 mm 12,7 km/h (3 Bft) W-NW 292 9,6 C 13,7 km/h (3 Bft)
23.06.2015 14:10 15,5 C 18,5 C 66 % 1015,9 hPa 0,0 mm 12,4 km/h (3 Bft) W-SW 247 9,2 C 9,3 km/h (2 Bft)
23.06.2015 14:15 15,7 C 18,8 C 65 % 1015,7 hPa 0,0 mm 14,8 km/h (3 Bft) W-NW 292 9,1 C 20,7 km/h (4 Bft)
23.06.2015 14:20 15,5 C 18,4 C 64 % 1015,7 hPa 0,0 mm 17,3 km/h (3 Bft) S-SO 157 8,7 C 12,4 km/h (3 Bft)
23.06.2015 14:25 15,8 C 18,8 C 65 % 1015,7 hPa 0,0 mm 15,0 km/h (3 Bft) SW 225 9,2 C 15,5 km/h (3 Bft)
23.06.2015 14:30 16,2 C 19,2 C 63 % 1015,7 hPa 0,0 mm 14,5 km/h (3 Bft) N-NW 337 9,1 C 40,7 km/h (6 Bft)
23.06.2015 14:35 16,0 C 19,2 C 61 % 1015,6 hPa 0,0 mm 15,3 km/h (3 Bft) S 180 8,5 C 11,4 km/h (2 Bft)
23.06.2015 14:40 16,5 C 19,7 C 61 % 1015,6 hPa 0,0 mm 14,8 km/h (3 Bft) NW 315 9,0 C 15,5 km/h (3 Bft)
23.06.2015 14:45 16,4 C 19,4 C 60 % 1015,6 hPa 0,0 mm 14,2 km/h (3 Bft) N 360 8,6 C 26,4 km/h (4 Bft)
23.06.2015 14:50 16,2 C 19,1 C 60 % 1015,6 hPa 0,0 mm 13,5 km/h (3 Bft) S 180 8,4 C 13,2 km/h (3 Bft)
23.06.2015 14:55 16,3 C 19,1 C 60 % 1015,8 hPa 0,0 mm 16,1 km/h (3 Bft) NW 315 8,5 C 40,1 km/h (6 Bft)
23.06.2015 15:00 16,4 C 19,2 C 60 % 1015,8 hPa 0,0 mm 16,1 km/h (3 Bft) W-NW 292 8,6 C 14,0 km/h (3 Bft)
23.06.2015 15:05 16,6 C 19,4 C 61 % 1015,8 hPa 0,0 mm 12,2 km/h (2 Bft) W-SW 247 9,0 C 12,7 km/h (3 Bft)
23.06.2015 15:10 16,7 C 19,7 C 60 % 1015,8 hPa 0,0 mm 11,7 km/h (2 Bft) W-SW 247 8,9 C 15,5 km/h (3 Bft)
23.06.2015 15:15 16,1 C 19,2 C 59 % 1015,9 hPa 0,0 mm 12,9 km/h (3 Bft) W 270 8,1 C 15,3 km/h (3 Bft)
23.06.2015 15:20 15,5 C 17,9 C 59 % 1015,9 hPa 0,0 mm 14,8 km/h (3 Bft) W-NW 292 7,5 C 16,6 km/h (3 Bft)
23.06.2015 15:25 15,7 C 17,6 C 61 % 1015,9 hPa 0,0 mm 14,8 km/h (3 Bft) W 270 8,2 C 25,4 km/h (4 Bft)
23.06.2015 15:30 16,0 C 18,3 C 59 % 1015,9 hPa 0,0 mm 14,5 km/h (3 Bft) W-SW 247 8,0 C 19,4 km/h (3 Bft)
23.06.2015 15:35 16,3 C 19,2 C 59 % 1015,8 hPa 0,0 mm 15,0 km/h (3 Bft) NW 315 8,3 C 21,5 km/h (4 Bft)
23.06.2015 15:40 16,5 C 19,5 C 59 % 1015,8 hPa 0,0 mm 13,5 km/h (3 Bft) NW 315 8,5 C 15,0 km/h (3 Bft)
23.06.2015 15:45 16,5 C 19,8 C 58 % 1015,8 hPa 0,0 mm 14,2 km/h (3 Bft) NW 315 8,2 C 17,3 km/h (3 Bft)
23.06.2015 15:50 15,9 C 18,9 C 59 % 1015,8 hPa 0,0 mm 14,0 km/h (3 Bft) W-SW 247 7,9 C 6,5 km/h (2 Bft)
23.06.2015 15:55 15,9 C 18,5 C 59 % 1016,1 hPa 0,0 mm 12,9 km/h (3 Bft) W 270 7,9 C 14,0 km/h (3 Bft)
23.06.2015 16:00 15,6 C 17,9 C 58 % 1016,1 hPa 0,0 mm 14,0 km/h (3 Bft) W 270 7,4 C 14,0 km/h (3 Bft)
23.06.2015 16:05 15,6 C 17,9 C 59 % 1016,1 hPa 0,0 mm 14,8 km/h (3 Bft) W 270 7,6 C 23,0 km/h (4 Bft)
23.06.2015 16:10 15,5 C 18,7 C 58 % 1016,1 hPa 0,0 mm 15,5 km/h (3 Bft) N-NW 337 7,3 C 22,3 km/h (4 Bft)
23.06.2015 16:15 15,4 C 19,0 C 58 % 1016,1 hPa 0,0 mm 17,1 km/h (3 Bft) S-SW 202 7,2 C 37,8 km/h (5 Bft)
23.06.2015 16:20 15,2 C 19,4 C 58 % 1016,1 hPa 0,0 mm 15,8 km/h (3 Bft) SW 225 7,0 C 7,8 km/h (2 Bft)
23.06.2015 16:25 15,4 C 19,8 C 59 % 1016,1 hPa 0,0 mm 15,0 km/h (3 Bft) W 270 7,4 C 32,1 km/h (5 Bft)
23.06.2015 16:30 15,2 C 18,9 C 58 % 1016,1 hPa 0,0 mm 16,6 km/h (3 Bft) NW 315 7,0 C 35,0 km/h (5 Bft)
23.06.2015 16:35 15,2 C 18,6 C 58 % 1016,4 hPa 0,0 mm 17,9 km/h (3 Bft) S-SW 202 7,0 C 14,8 km/h (3 Bft)
23.06.2015 16:40 15,0 C 19,0 C 58 % 1016,4 hPa 0,0 mm 16,1 km/h (3 Bft) W-NW 292 6,8 C 10,4 km/h (2 Bft)
23.06.2015 16:45 15,0 C 19,3 C 58 % 1016,4 hPa 0,0 mm 15,8 km/h (3 Bft) NW 315 6,8 C 29,0 km/h (5 Bft)
23.06.2015 16:50 15,0 C 19,3 C 58 % 1016,4 hPa 0,0 mm 15,5 km/h (3 Bft) W 270 6,8 C 30,3 km/h (5 Bft)
23.06.2015 16:55 14,9 C 19,1 C 58 % 1016,4 hPa 0,0 mm 14,8 km/h (3 Bft) W-SW 247 6,7 C 25,6 km/h (4 Bft)
23.06.2015 17:00 14,9 C 18,8 C 59 % 1016,4 hPa 0,0 mm 14,0 km/h (3 Bft) NW 315 7,0 C 21,2 km/h (4 Bft)
23.06.2015 17:05 14,7 C 18,0 C 58 % 1016,4 hPa 0,0 mm 14,8 km/h (3 Bft) NW 315 6,5 C 21,2 km/h (4 Bft)
23.06.2015 17:10 14,9 C 16,8 C 59 % 1016,4 hPa 0,0 mm 14,2 km/h (3 Bft) NW 315 7,0 C 36,0 km/h (5 Bft)
23.06.2015 17:15 14,7 C 16,3 C 59 % 1016,6 hPa 0,0 mm 15,0 km/h (3 Bft) NW 315 6,8 C 18,1 km/h (3 Bft)
23.06.2015 17:20 14,9 C 15,7 C 59 % 1016,6 hPa 0,0 mm 16,8 km/h (3 Bft) W 270 7,0 C 16,8 km/h (3 Bft)
23.06.2015 17:25 14,7 C 15,4 C 59 % 1016,6 hPa 0,0 mm 16,8 km/h (3 Bft) W-NW 292 6,8 C 17,9 km/h (3 Bft)
23.06.2015 17:30 14,5 C 15,1 C 58 % 1016,6 hPa 0,0 mm 19,9 km/h (4 Bft) W 270 6,3 C 37,8 km/h (5 Bft)
23.06.2015 17:35 14,4 C 14,7 C 58 % 1016,8 hPa 0,0 mm 20,2 km/h (4 Bft) NW 315 6,2 C 44,8 km/h (6 Bft)
23.06.2015 17:40 14,4 C 14,6 C 59 % 1016,8 hPa 0,0 mm 17,3 km/h (3 Bft) W-SW 247 6,5 C 8,0 km/h (2 Bft)
23.06.2015 17:45 14,5 C 14,8 C 59 % 1016,8 hPa 0,0 mm 17,1 km/h (3 Bft) W-SW 247 6,6 C 17,9 km/h (3 Bft)
23.06.2015 17:50 14,4 C 14,9 C 58 % 1016,8 hPa 0,0 mm 15,3 km/h (3 Bft) S 180 6,2 C 21,2 km/h (4 Bft)
23.06.2015 17:55 14,2 C 14,8 C 58 % 1016,8 hPa 0,0 mm 14,8 km/h (3 Bft) NW 315 6,1 C 14,0 km/h (3 Bft)
23.06.2015 18:00 13,9 C 14,8 C 58 % 1016,8 hPa 0,0 mm 14,8 km/h (3 Bft) S 180 5,8 C 7,8 km/h (2 Bft)
23.06.2015 18:05 13,9 C 14,5 C 59 % 1016,8 hPa 0,0 mm 14,0 km/h (3 Bft) W-SW 247 6,0 C 8,5 km/h (2 Bft)
23.06.2015 18:10 13,8 C 14,5 C 59 % 1016,8 hPa 0,0 mm 11,7 km/h (2 Bft) NW 315 5,9 C 17,6 km/h (3 Bft)
23.06.2015 18:15 13,9 C 14,5 C 59 % 1016,9 hPa 0,0 mm 12,4 km/h (3 Bft) W-NW 292 6,0 C 14,8 km/h (3 Bft)
23.06.2015 18:20 13,7 C 14,4 C 59 % 1016,9 hPa 0,0 mm 12,9 km/h (3 Bft) W 270 5,8 C 12,9 km/h (3 Bft)
23.06.2015 18:25 13,6 C 14,2 C 59 % 1016,9 hPa 0,0 mm 13,2 km/h (3 Bft) NW 315 5,7 C 8,3 km/h (2 Bft)
23.06.2015 18:30 13,8 C 14,7 C 59 % 1016,9 hPa 0,0 mm 14,2 km/h (3 Bft) NW 315 5,9 C 16,6 km/h (3 Bft)
23.06.2015 18:35 13,8 C 15,2 C 58 % 1017,4 hPa 0,0 mm 14,8 km/h (3 Bft) W-NW 292 5,7 C 19,2 km/h (3 Bft)
23.06.2015 18:40 13,8 C 15,5 C 58 % 1017,4 hPa 0,0 mm 14,5 km/h (3 Bft) O-NO 67 5,7 C 10,1 km/h (2 Bft)
23.06.2015 18:45 13,8 C 16,4 C 57 % 1017,4 hPa 0,0 mm 13,2 km/h (3 Bft) W-SW 247 5,4 C 45,3 km/h (6 Bft)
23.06.2015 18:50 13,8 C 16,3 C 57 % 1017,4 hPa 0,0 mm 12,9 km/h (3 Bft) W 270 5,4 C 26,4 km/h (4 Bft)
23.06.2015 18:55 13,8 C 15,9 C 57 % 1017,2 hPa 0,0 mm 14,0 km/h (3 Bft) W-SW 247 5,4 C 13,5 km/h (3 Bft)
23.06.2015 19:00 14,0 C 16,5 C 58 % 1017,2 hPa 0,0 mm 11,7 km/h (2 Bft) W-NW 292 5,9 C 13,7 km/h (3 Bft)
23.06.2015 19:05 13,9 C 16,5 C 58 % 1017,2 hPa 0,0 mm 12,2 km/h (2 Bft) N-NW 337 5,8 C 23,3 km/h (4 Bft)
23.06.2015 19:10 13,7 C 16,3 C 58 % 1017,2 hPa 0,0 mm 14,5 km/h (3 Bft) NW 315 5,6 C 8,5 km/h (2 Bft)
23.06.2015 19:15 13,5 C 15,7 C 58 % 1017,9 hPa 0,0 mm 13,2 km/h (3 Bft) NW 315 5,4 C 14,5 km/h (3 Bft)
23.06.2015 19:20 13,3 C 15,0 C 59 % 1017,9 hPa 0,0 mm 10,4 km/h (2 Bft) W-NW 292 5,5 C 13,2 km/h (3 Bft)
23.06.2015 19:25 13,2 C 14,6 C 59 % 1017,9 hPa 0,0 mm 9,8 km/h (2 Bft) NW 315 5,4 C 14,5 km/h (3 Bft)
23.06.2015 19:30 13,0 C 14,0 C 59 % 1017,9 hPa 0,0 mm 9,6 km/h (2 Bft) W 270 5,2 C 10,4 km/h (2 Bft)
23.06.2015 19:35 13,0 C 13,6 C 59 % 1017,9 hPa 0,0 mm 10,4 km/h (2 Bft) W-SW 247 5,2 C 14,0 km/h (3 Bft)
23.06.2015 19:40 12,8 C 13,3 C 59 % 1017,9 hPa 0,0 mm 9,8 km/h (2 Bft) W 270 5,0 C 15,0 km/h (3 Bft)
23.06.2015 19:45 12,7 C 13,1 C 59 % 1017,9 hPa 0,0 mm 8,5 km/h (2 Bft) S 180 4,9 C 9,3 km/h (2 Bft)
23.06.2015 19:50 12,6 C 12,9 C 60 % 1017,9 hPa 0,0 mm 6,5 km/h (2 Bft) S-SW 202 5,0 C 2,8 km/h (1 Bft)
23.06.2015 19:55 12,5 C 12,8 C 60 % 1018,1 hPa 0,0 mm 6,0 km/h (2 Bft) N-NO 22 5,0 C 10,9 km/h (2 Bft)
23.06.2015 20:00 12,4 C 12,7 C 61 % 1018,1 hPa 0,0 mm 5,4 km/h (1 Bft) W-NW 292 5,1 C 4,7 km/h (1 Bft)
23.06.2015 20:05 12,3 C 12,6 C 61 % 1018,1 hPa 0,0 mm 6,0 km/h (2 Bft) S-SO 157 5,0 C 10,6 km/h (2 Bft)
23.06.2015 20:10 12,2 C 12,5 C 62 % 1018,1 hPa 0,0 mm 4,4 km/h (1 Bft) SW 225 5,1 C 10,1 km/h (2 Bft)
23.06.2015 20:15 12,2 C 12,3 C 62 % 1018,4 hPa 0,0 mm 4,1 km/h (1 Bft) S-SW 202 5,1 C 0,0 km/h (0 Bft)
23.06.2015 20:20 12,1 C 12,2 C 62 % 1018,4 hPa 0,0 mm 3,1 km/h (1 Bft) SW 225 5,0 C 0,0 km/h (0 Bft)
23.06.2015 20:25 12,0 C 12,1 C 63 % 1018,4 hPa 0,0 mm 2,3 km/h (1 Bft) SW 225 5,2 C 9,8 km/h (2 Bft)
23.06.2015 20:30 11,9 C 12,0 C 63 % 1018,4 hPa 0,0 mm 2,1 km/h (1 Bft) S 180 5,1 C 7,5 km/h (2 Bft)
23.06.2015 20:35 11,9 C 11,9 C 64 % 1018,4 hPa 0,0 mm 2,6 km/h (1 Bft) S-SW 202 5,3 C 0,0 km/h (0 Bft)
23.06.2015 20:40 11,8 C 11,8 C 64 % 1018,4 hPa 0,0 mm 2,3 km/h (1 Bft) W-SW 247 5,2 C 2,6 km/h (1 Bft)
23.06.2015 20:45 11,7 C 11,7 C 64 % 1018,4 hPa 0,0 mm 1,8 km/h (1 Bft) W-SW 247 5,1 C 0,0 km/h (0 Bft)
23.06.2015 20:50 11,5 C 11,5 C 65 % 1018,4 hPa 0,0 mm 1,0 km/h (0 Bft) S 180 5,2 C 0,0 km/h (0 Bft)
23.06.2015 20:55 11,4 C 11,4 C 65 % 1018,6 hPa 0,0 mm 0,5 km/h (0 Bft) SW 225 5,1 C 3,1 km/h (1 Bft)
23.06.2015 21:00 11,3 C 11,3 C 65 % 1018,6 hPa 0,0 mm 0,3 km/h (0 Bft) S 180 5,0 C 0,0 km/h (0 Bft)
23.06.2015 21:05 11,2 C 11,2 C 66 % 1018,6 hPa 0,0 mm 0,3 km/h (0 Bft) S 180 5,1 C 0,0 km/h (0 Bft)
23.06.2015 21:10 11,1 C 11,0 C 66 % 1018,6 hPa 0,0 mm 0,3 km/h (0 Bft) NW 315 5,0 C 3,4 km/h (1 Bft)
23.06.2015 21:15 11,1 C 11,0 C 66 % 1018,8 hPa 0,0 mm 0,5 km/h (0 Bft) W-SW 247 5,0 C 0,0 km/h (0 Bft)
23.06.2015 21:20 11,0 C 10,9 C 66 % 1018,8 hPa 0,0 mm 0,8 km/h (0 Bft) W-SW 247 4,9 C 0,0 km/h (0 Bft)
23.06.2015 21:25 10,9 C 10,8 C 66 % 1018,8 hPa 0,0 mm 0,3 km/h (0 Bft) SW 225 4,8 C 0,0 km/h (0 Bft)
23.06.2015 21:30 10,9 C 10,8 C 66 % 1018,8 hPa 0,0 mm 2,1 km/h (1 Bft) SW 225 4,8 C 4,9 km/h (1 Bft)
23.06.2015 21:35 10,9 C 10,8 C 66 % 1018,9 hPa 0,0 mm 4,1 km/h (1 Bft) O-SO 112 4,8 C 7,3 km/h (2 Bft)
23.06.2015 21:40 10,9 C 10,8 C 66 % 1018,9 hPa 0,0 mm 5,4 km/h (1 Bft) SW 225 4,8 C 5,7 km/h (1 Bft)
23.06.2015 21:45 10,8 C 10,7 C 67 % 1018,9 hPa 0,0 mm 5,4 km/h (1 Bft) SW 225 4,9 C 4,9 km/h (1 Bft)
23.06.2015 21:50 10,6 C 10,5 C 67 % 1018,9 hPa 0,0 mm 4,9 km/h (1 Bft) SW 225 4,7 C 8,0 km/h (2 Bft)
23.06.2015 21:55 10,4 C 10,4 C 68 % 1019,6 hPa 0,0 mm 4,4 km/h (1 Bft) S 180 4,8 C 3,4 km/h (1 Bft)
23.06.2015 22:00 10,1 C 10,1 C 68 % 1019,6 hPa 0,0 mm 3,1 km/h (1 Bft) W-SW 247 4,5 C 4,4 km/h (1 Bft)
23.06.2015 22:05 10,0 C 9,9 C 68 % 1019,6 hPa 0,0 mm 2,6 km/h (1 Bft) SW 225 4,4 C 3,9 km/h (1 Bft)
23.06.2015 22:10 10,1 C 10,0 C 69 % 1019,6 hPa 0,0 mm 3,1 km/h (1 Bft) SW 225 4,7 C 0,0 km/h (0 Bft)
23.06.2015 22:15 10,1 C 10,0 C 69 % 1019,6 hPa 0,0 mm 2,6 km/h (1 Bft) S 180 4,7 C 5,7 km/h (1 Bft)
23.06.2015 22:20 10,3 C 10,1 C 69 % 1019,6 hPa 0,0 mm 3,1 km/h (1 Bft) S 180 4,9 C 7,8 km/h (2 Bft)
23.06.2015 22:25 10,3 C 10,2 C 69 % 1019,6 hPa 0,0 mm 3,4 km/h (1 Bft) S 180 4,9 C 4,7 km/h (1 Bft)
23.06.2015 22:30 10,3 C 10,2 C 68 % 1019,6 hPa 0,0 mm 3,1 km/h (1 Bft) S-SW 202 4,7 C 3,6 km/h (1 Bft)
23.06.2015 22:35 10,4 C 10,3 C 68 % 1019,9 hPa 0,0 mm 3,6 km/h (1 Bft) S-SW 202 4,8 C 6,7 km/h (2 Bft)
23.06.2015 22:40 10,4 C 10,3 C 68 % 1019,9 hPa 0,0 mm 6,2 km/h (2 Bft) SW 225 4,8 C 10,1 km/h (2 Bft)
23.06.2015 22:45 10,4 C 10,3 C 68 % 1019,9 hPa 0,0 mm 7,3 km/h (2 Bft) SW 225 4,8 C 0,0 km/h (0 Bft)
23.06.2015 22:50 10,4 C 10,3 C 68 % 1019,9 hPa 0,0 mm 6,7 km/h (2 Bft) W 270 4,8 C 6,5 km/h (2 Bft)
23.06.2015 22:55 10,4 C 10,3 C 68 % 1019,9 hPa 0,0 mm 6,5 km/h (2 Bft) SW 225 4,8 C 5,2 km/h (1 Bft)
23.06.2015 23:00 10,3 C 10,2 C 68 % 1019,9 hPa 0,0 mm 5,2 km/h (1 Bft) SW 225 4,7 C 6,2 km/h (2 Bft)
23.06.2015 23:05 10,3 C 10,2 C 68 % 1019,9 hPa 0,0 mm 2,8 km/h (1 Bft) SW 225 4,7 C 0,0 km/h (0 Bft)
23.06.2015 23:10 10,2 C 10,1 C 68 % 1019,9 hPa 0,0 mm 0,8 km/h (0 Bft) W-NW 292 4,6 C 0,0 km/h (0 Bft)
23.06.2015 23:15 10,2 C 10,1 C 69 % 1020,3 hPa 0,0 mm 0,0 km/h (0 Bft) W-NW 292 4,8 C 0,0 km/h (0 Bft)
23.06.2015 23:20 10,1 C 10,0 C 69 % 1020,3 hPa 0,0 mm 0,0 km/h (0 Bft) SW 225 4,7 C 0,0 km/h (0 Bft)
23.06.2015 23:25 10,0 C 9,9 C 70 % 1020,3 hPa 0,0 mm 0,0 km/h (0 Bft) W-SW 247 4,8 C 0,0 km/h (0 Bft)
23.06.2015 23:30 10,1 C 10,0 C 70 % 1020,3 hPa 0,0 mm 0,8 km/h (0 Bft) SW 225 4,9 C 0,0 km/h (0 Bft)
23.06.2015 23:35 10,1 C 10,0 C 70 % 1020,4 hPa 0,0 mm 0,8 km/h (0 Bft) SW 225 4,9 C 0,0 km/h (0 Bft)
23.06.2015 23:40 10,1 C 10,0 C 71 % 1020,4 hPa 0,0 mm 0,8 km/h (0 Bft) NW 315 5,1 C 0,0 km/h (0 Bft)
23.06.2015 23:45 10,1 C 10,0 C 71 % 1020,4 hPa 0,0 mm 1,0 km/h (0 Bft) W 270 5,1 C 2,6 km/h (1 Bft)
23.06.2015 23:50 10,1 C 10,0 C 72 % 1020,4 hPa 0,0 mm 0,8 km/h (0 Bft) W 270 5,3 C 0,0 km/h (0 Bft)
23.06.2015 23:55 10,0 C 9,9 C 72 % 1020,4 hPa 0,0 mm 1,6 km/h (1 Bft) NW 315 5,2 C 7,8 km/h (2 Bft)
_ Min-Zeit 05:45 05:25 18:55 00:10 - 23:25 - - 22:05 23:50
Minimum _ 8,9 C 8,5 C 57 % 1009,0 hPa - 0,0 km/h (0 Bft) - - 4,4 C 0,0 km/h (0 Bft)
_ Max-Zeit 15:10 16:25 02:15 23:55 01:10 17:35 - - 11:50 00:15
Maximum _ 16,7 C 19,8 C 90 % 1020,4 hPa 2,1 mm 20,2 km/h
NW (4 Bft)
- - 10,9 C 52,3 km/h
W-NW (7 Bft)
Durchschnitt _ 12,0 C 12,8 C 75 % 1015,2 hPa #25,4 mm 8,2 km/h (2 Bft) NW - 7,5 C 11,2 km/h (2 Bft)